Weather History for KHPN - January, 2013

Change the Weather History Date:

Sunday, January 20, 2013

  Actual Average Record
Temperature  
Mean Temperature 40 °F -  
Max Temperature 51 °F 31 °F 57 °F (2006)
Min Temperature 28 °F 18 °F 0 °F (1985)
Degree Days  
Heating Degree Days 26    
Moisture  
Dew Point 20 °F    
Average Humidity 45    
Maximum Humidity 62    
Minimum Humidity 24    
Precipitation  
Precipitation 0.00 in - - ()
Sea Level Pressure  
Sea Level Pressure 29.81 in    
Wind  
Wind Speed 11 mph (West)    
Max Wind Speed 25 mph    
Max Gust Speed 38 mph    
Visibility 10 miles    
Events      
Averages and records for this station are not official NWS values.
T = Trace of Precipitation, MM = Missing Value Source: NWS Daily Summary

Daily Weather History Graph

Daily Weather History Graph

Search for Another Location

Airport or City:

Trip Planner

Search our weather history database for the weather conditions in past years. The results will help you decide how hot, cold, wet, or windy it might be!

Date:

Astronomy

Jan. 20, 2013 Rise Set
Actual Time 7:14 AM EST 4:57 PM EST
Civil Twilight 6:45 AM EST 5:27 PM EST
Nautical Twilight 6:11 AM EST 6:00 PM EST
Astronomical Twilight 5:38 AM EST 6:33 PM EST
Moon 11:57 AM EST (1/20) 1:44 AM EST (1/20)
Length of Visible Light 10h 42m
Length of Day
9h 42m
Waxing Gibbous, 66% of the Moon is Illuminated
Jan 20
Waxing Gibbous
Jan 26
Full
Feb 3
Last Quarter
Feb 10
New
Feb 17
First Quarter

Hourly Weather History & Observations

Time (EST) Temp. Windchill Dew Point Humidity Pressure Visibility Wind Dir Wind Speed Gust Speed Precip Events Conditions
12:56 AM 42.1 °F 38.4 °F 26.1 °F 53% 29.88 in 10.0 mi South 5.8 mph - N/A   Clear
1:56 AM 41.0 °F 36.4 °F 27.0 °F 57% 29.86 in 10.0 mi Variable 6.9 mph - N/A   Clear
2:56 AM 39.9 °F 35.1 °F 27.0 °F 60% 29.84 in 10.0 mi Variable 6.9 mph - N/A   Clear
3:56 AM 39.0 °F 34.8 °F 27.0 °F 62% 29.82 in 10.0 mi SW 5.8 mph - N/A   Clear
4:56 AM 39.0 °F 34.8 °F 27.0 °F 62% 29.78 in 10.0 mi Variable 5.8 mph - N/A   Clear
5:56 AM 39.0 °F 35.7 °F 27.0 °F 62% 29.75 in 10.0 mi Variable 4.6 mph - N/A   Clear
6:56 AM 39.9 °F 34.5 °F 27.0 °F 60% 29.74 in 10.0 mi SSW 8.1 mph - N/A   Clear
7:56 AM 39.9 °F 36.7 °F 27.0 °F 60% 29.74 in 10.0 mi Variable 4.6 mph - N/A   Clear
8:56 AM 43.0 °F 38.8 °F 27.0 °F 53% 29.74 in 10.0 mi WSW 6.9 mph - N/A   Clear
9:56 AM 46.0 °F 40.2 °F 26.1 °F 46% 29.74 in 10.0 mi SW 12.7 mph 17.3 mph N/A   Clear
10:56 AM 50.0 °F - 26.1 °F 39% 29.71 in 10.0 mi WSW 11.5 mph 21.9 mph N/A   Clear
11:56 AM 50.0 °F - 26.1 °F 39% 29.68 in 10.0 mi West 13.8 mph 24.2 mph N/A   Partly Cloudy
12:56 PM 51.1 °F - 25.0 °F 36% 29.67 in 10.0 mi West 16.1 mph 29.9 mph N/A   Partly Cloudy
1:56 PM 50.0 °F - 21.9 °F 33% 29.68 in 10.0 mi West 15.0 mph 31.1 mph N/A   Partly Cloudy
2:56 PM 51.1 °F - 15.1 °F 24% 29.71 in 10.0 mi West 23.0 mph 32.2 mph N/A   Clear
3:56 PM 48.0 °F - 12.0 °F 24% 29.75 in 10.0 mi West 16.1 mph 27.6 mph N/A   Clear
4:56 PM 45.0 °F 37.9 °F 10.9 °F 25% 29.80 in 10.0 mi West 16.1 mph 28.8 mph N/A   Clear
5:56 PM 39.0 °F 28.0 °F 16.0 °F 39% 29.85 in 10.0 mi WNW 25.3 mph 38.0 mph N/A   Clear
6:56 PM 37.0 °F 26.2 °F 14.0 °F 39% 29.89 in 10.0 mi NW 21.9 mph 31.1 mph N/A   Clear
7:56 PM 34.0 °F 22.1 °F 10.9 °F 38% 29.94 in 10.0 mi WNW 21.9 mph 33.4 mph N/A   Clear
8:56 PM 33.1 °F 21.5 °F 12.0 °F 42% 29.96 in 10.0 mi WNW 19.6 mph 32.2 mph N/A   Clear
9:56 PM 30.9 °F 18.1 °F 10.9 °F 43% 29.97 in 10.0 mi NW 21.9 mph 27.6 mph N/A   Clear
10:56 PM 28.9 °F 16.9 °F 10.0 °F 45% 30.00 in 10.0 mi NW 17.3 mph 25.3 mph N/A   Clear
11:56 PM 28.0 °F 17.0 °F 8.1 °F 43% 30.01 in 10.0 mi NW 13.8 mph 23.0 mph N/A   Clear